Home > Time Zones > World Clock > Weather > Iran > Gorgan > Past weeks

Flag for Iran Weather past 2 weeks in Gorgan, Iran

Now
55 °F

Drizzle. Fog.


Feels Like: 55 °F
Forecast: 57 / 94 °F
Wind: No wind

Location: Gorgan Airport

Current Time: Apr 21, 2015 at 7:13:05 AM

Latest Report: Apr 21, 2015 at 6:30 AM


Visibility: 1 mi

Pressure: 29.92 "Hg

Humidity: 100%

Dew point: 55 °F

Location of GorganLocation

Historic Weather in Gorgan — Graph

°F

Gorgan temperature yesterday

Maximum temperature yesterday: 88 °F (at 1:30 PM)
Minimum temperature yesterday: 50 °F (at 5:30 AM)
Average temperature yesterday: 66 °F

Past Weeks' High & Low Weather Summary

 TemperatureHumidityPressure
High102 °F (Apr 10, 1:30 PM)100% (Apr 6, 5:30 AM)30.27 "Hg (Apr 6, 5:30 AM)
Low39 °F (Apr 8, 5:30 AM)17% (Apr 19, 3:30 PM)29.68 "Hg (Apr 10, 1:30 PM)
Average59 °F80%30.02 "Hg
* Reported Apr 6 5:30 AM — Apr 21 5:30 AM, Gorgan, Weather by CustomWeather, © 2015

Note: Actual official high and low records may vary slightly from our data, if they occured in-between our weather recording intervals... More about our weather records

Advertising

Gorgan weather history for previous 24 hours

 ConditionsComfort  
Time TempWeatherWind HumidityBarometerVisibility
5:30 AM
Tue, Apr 21
55 °FFog.No wind100%29.89 "Hg2 mi
4:30 AM57 °FFog.5 mph94%29.89 "Hg2 mi
3:30 AM59 °FFog.5 mph88%29.89 "Hg2 mi
1:30 AM59 °FFog.No wind94%29.89 "Hg2 mi
12:30 AM59 °FPartly cloudy.No wind94%29.89 "Hg4 mi
11:30 PM
Mon, Apr 20
59 °FPartly cloudy.12 mph94%29.86 "Hg4 mi
11:00 PM57 °FPassing clouds.7 mph94%29.86 "Hg4 mi
10:30 PM59 °FPassing clouds.12 mph94%29.89 "Hg4 mi
9:30 PM59 °FClear.12 mph94%29.89 "Hg10 mi
8:30 PM59 °FSunny.12 mph88%29.86 "Hg10 mi
8:00 PM63 °FSunny.12 mph73%29.86 "Hg10 mi
7:30 PM64 °FSunny.9 mph68%29.83 "Hg10 mi
6:30 PM73 °FSunny.16 mph47%29.83 "Hg10 mi
5:30 PM77 °FSunny.18 mph44%29.80 "Hg10 mi
4:30 PM82 °FSunny.12 mph37%29.80 "Hg10 mi
3:30 PM88 °FSunny.16 mph31%29.77 "Hg10 mi
2:30 PM88 °FSunny.14 mph33%29.77 "Hg10 mi
1:30 PM88 °FSunny.12 mph29%29.80 "Hg10 mi
12:30 PM84 °FSunny.7 mph37%29.80 "Hg10 mi
11:30 AM81 °FSunny.7 mph39%29.80 "Hg10 mi
10:30 AM77 °FSunny.12 mph44%29.83 "Hg10 mi
9:30 AM72 °FSunny.16 mph57%29.83 "Hg10 mi
8:30 AM66 °FSunny.12 mph68%29.80 "Hg10 mi
7:30 AM55 °FClear.5 mph82%29.77 "Hg10 mi
Weather by CustomWeather, © 2015

See weather overviewHow to use our weather pages